User: anonymous   Login
Location: Blacksburg
(37.2290°N, 80.4140°W)
Time: 06:30:34
(UTC-04:00)
Language:

ISS - Orbit

View from above orbital plane
View from above orbital plane
View from above satellite
View from above satellite

Ground track
Ground track

The orbit data is extracted from the following two-line orbital elements,

1 25544U 98067A   21259.21473368  .00002068  00000-0  46608-4 0  9997
2 25544  51.6428 252.6298 0003137  21.2391  87.8773 15.48395478302700
Epoch (UTC): 16 September 2021 05:09:12
Eccentricity: 0.0003137
inclination: 51.6428°
perigee height: 419 km
apogee height: 423 km
right ascension of ascending node: 252.6298°
argument of perigee: 21.2391°
revolutions per day: 15.48395478
mean anomaly at epoch: 87.8773°
orbit number at epoch: 30270

The dashed part of the orbit path shows where the satellite is in the earth's shadow,  

DLR